LEMUR-2-PETER (40935 NORAD) Tracking and Keplerian Element Data

This shows tracking and keplerian element data for the satellite.

Feedback or suggestion? Click here.




ElementValue
Catalog40935
NameLEMUR-2-PETER
Epoch Orbit32825
Epoch Day295.98715557
Epoch Year2021
RAAN53.8279
Inclination6.0035
Eccentricity0.0008197
Argument of Perigee62.3453
Mean Anonmoly297.8345
Mean Motion14.77639772
Decay Rate0.00059197
L11 40935U 15052F 21295.98715557 .00059197 00000-0 79149-2 0 9993
L22 40935 6.0035 53.8279 0008197 62.3453 297.8345 14.77639772328250



Live tracking and technical data element details for LEMUR-2-PETER (NORAD 40935). LEMUR-2-PETER can be tracked NOW for your location showing map with azimuth and elevation plus other details from your city location.







IsCatalogInMostPopularTable: catalog: 40935, numindb: 341
Update: records affected: 1



GetName: 40935 LEMUR-2-PETER

Hit Count: updated at: Sat, 17 May 2025 09:23:11 GMT